NOAA 16 DEB, 41424

Orbit data source: Space-Track

NOAA 16 DEB, 41424 is space debris in SSO originally from a launch on Thu, 21 Sep 2000 UTC launched from the Air Force Western Test Range (AFWTR). Debris objects in space refer to the collection of defunct objects orbiting the Earth. Examples of debris include non-operational satellites, rocket bodies, and fragments generated from explosions, collisions, or faulty payload assembly.

Loading next visibility...
Identifier
41424, 2000-055LD
Orbit
SSO
Country
Flag of USUS
Related business
Manufacturer
Unknown
Mission
Spacecraft
Bus & Motor
Unknown
Mass
Unknown
Launch date (UTC)
2000-09-21 (26 years ago)
Launch vehicle
Unknown
Launch site
Air Force Western Test Range (AFWTR)
Object type
Payload
Rocket body
Debris
Shape & HBR
Unknown shape, 0.1 m
Radar Cross Section
Small (<0.1 m²)

Expand to show TLE details & history
Last TLE update: 1 day ago

TLE from 1 day ago
0 NOAA 16 DEB
1 41424U 00055LD  26106.36238286  .00002876  00000-0  92532-3 0  9995
2 41424  98.9545 260.9791 0020156 338.4742  21.5595 14.40030939525930
Epoch: 2026-04-16T08:41Z
TLE epoch observation values (Epoch: 2026-04-16T08:41:49.879Z)
Latitude
-0.00003°
Longitude
-73.98974°
Altitude
747.953 km
Speed
7.488 km/s
True Right ascension
17h 23m 54s
True Declination
0° 00' 00"
Sunlit
Object was in full shadow at epoch
Visualization orbit readout
Latitude
Unknown
Longitude
Unknown
Altitude
Unknown
Speed
Unknown
Apparent Right ascension
Unknown
Apparent Declination
Unknown
Sunlit
N/A
Visualization observer readout
Local Sidereal Time
17:06:32
Azimuth
Unknown
Elevation
Unknown
Doppler factor
Unknown
Orbital elements
Apogee altitude
769.919 km
Perigee altitude
741.161 km
Semi-major axis
7,133.677 km
Eccentricity
0.00202
Inclination
98.9545°
RAAN
260.9791°
Arg. of periapsis
338.4742°
True anomaly
21.64457°
Mean anomaly
21.5595°
Eccentric anomaly
21.60202°
Mean motion
3.60224 °/min
Orbital period
99.94 mins
BSTAR
0.00092532
Loading maneuver chart data...
Computing Atmospheric mass density...
Loading historical data...
Loading historical data...
Loading historical data...
Loading historical data...
Loading historical data...
Loading historical data...
Loading historical data...

Documentation

Showing up to 5 results
|